Weather History for Cape Girardeau, MO

Change the Weather History Date:

Wednesday, July 17, 2013

  Actual Average Record
Temperature  
Mean Temperature 83 °F 79 °F  
Max Temperature 95 °F 90 °F 99 °F (1969)
Min Temperature 70 °F 68 °F 56 °F (1960)
Degree Days  
Heating Degree Days 0 0  
Month to date heating degree days 0 0  
Since 1 June heating degree days 0 4  
Since 1 July heating degree days 0 0  
Cooling Degree Days 18 14  
Month to date cooling degree days 192 235  
Year to date cooling degree days 696 699  
Since 1 June cooling degree days 525 547  
Growing Degree Days 32 (Base 50)    
Moisture  
Dew Point 72 °F    
Average Humidity 73    
Maximum Humidity 100    
Minimum Humidity 46    
Precipitation  
Precipitation 0.00 in 0.11 in 1.39 in (1963)
Month to date precipitation 0.14 1.86  
Year to date precipitation 24.07 26.53  
Sea Level Pressure  
Sea Level Pressure 30.25 in    
Wind  
Wind Speed 3 mph (ENE)    
Max Wind Speed 10 mph    
Max Gust Speed 14 mph    
Visibility 10 miles    
Events      
T = Trace of Precipitation, MM = Missing Value Source: NWS Daily Summary

Daily Weather History Graph

Daily Weather History Graph

Search for Another Location

Airport:

Trip Planner

Search our weather history database for the weather conditions in past years. The results will help you decide how hot, cold, wet, or windy it might be!

Date:

Astronomy

Jul. 17, 2013 Rise Set
Actual Time 5:51 AM CDT 8:17 PM CDT
Civil Twilight 5:21 AM CDT 8:47 PM CDT
Nautical Twilight 4:44 AM CDT 9:23 PM CDT
Astronomical Twilight 4:03 AM CDT 10:04 PM CDT
Moon 3:07 PM CDT (7/17) 12:55 AM CDT (7/17)
Length of Visible Light 15h 25m
Length of Day
14h 25m
Waxing Gibbous, 67% of the Moon is Illuminated
Jul 17
Waxing Gibbous
Jul 22
Full
Jul 29
Last Quarter
Aug 6
New
Aug 14
First Quarter

Hourly Weather History & Observations

Time (CDT) Temp. Heat Index Dew Point Humidity Pressure Visibility Wind Dir Wind Speed Gust Speed Precip Events Conditions
12:53 AM 75.0 °F - 72.0 °F 90% 30.27 in 10.0 mi Calm Calm - N/A   Clear
1:53 AM 73.0 °F - 71.1 °F 93% 30.26 in 10.0 mi Calm Calm - N/A   Clear
2:53 AM 72.0 °F - 70.0 °F 93% 30.26 in 10.0 mi Calm Calm - N/A   Clear
3:53 AM 73.0 °F - 71.1 °F 93% 30.27 in 10.0 mi Calm Calm - N/A   Clear
4:53 AM 72.0 °F - 71.1 °F 97% 30.28 in 8.0 mi Calm Calm - N/A   Clear
5:53 AM 70.0 °F - 69.1 °F 97% 30.29 in 8.0 mi Calm Calm - N/A   Clear
6:53 AM 73.9 °F - 72.0 °F 93% 30.30 in 7.0 mi Calm Calm - N/A   Clear
7:53 AM 81.0 °F 86.2 °F 73.9 °F 79% 30.32 in 10.0 mi Calm Calm - N/A   Clear
8:53 AM 84.9 °F 92.1 °F 73.9 °F 69% 30.32 in 10.0 mi NNE 4.6 mph - N/A   Clear
9:53 AM 89.1 °F 96.0 °F 72.0 °F 57% 30.31 in 10.0 mi ENE 5.8 mph - N/A   Clear
10:53 AM 91.0 °F 97.6 °F 71.1 °F 52% 30.31 in 10.0 mi ENE 6.9 mph - N/A   Clear
11:53 AM 93.9 °F 100.3 °F 70.0 °F 46% 30.30 in 10.0 mi Calm Calm - N/A   Partly Cloudy
12:53 PM 93.9 °F 100.8 °F 71.1 °F 47% 30.29 in 10.0 mi NE 5.8 mph - N/A   Clear
1:53 PM 93.9 °F 99.1 °F 69.1 °F 44% 30.27 in 10.0 mi Variable 5.8 mph - N/A   Clear
2:53 PM 93.9 °F 100.3 °F 70.0 °F 46% 30.25 in 10.0 mi East 6.9 mph - N/A   Clear
3:53 PM 93.9 °F 102.1 °F 72.0 °F 49% 30.22 in 10.0 mi East 5.8 mph - N/A   Partly Cloudy
4:53 PM 91.9 °F 98.4 °F 71.1 °F 50% 30.21 in 10.0 mi ENE 5.8 mph - N/A   Clear
5:53 PM 93.0 °F 100.7 °F 72.0 °F 50% 30.19 in 10.0 mi East 6.9 mph - N/A   Clear
6:53 PM 91.9 °F 99.5 °F 72.0 °F 52% 30.18 in 10.0 mi NNE 5.8 mph - N/A   Clear
7:53 PM 87.1 °F 94.5 °F 73.0 °F 63% 30.19 in 10.0 mi East 5.8 mph - N/A   Clear
8:53 PM 81.0 °F 85.8 °F 73.0 °F 77% 30.19 in 10.0 mi SW 4.6 mph - N/A   Clear
9:53 PM 79.0 °F - 73.9 °F 84% 30.21 in 10.0 mi Calm Calm - N/A   Clear
10:53 PM 79.0 °F - 73.9 °F 84% 30.20 in 10.0 mi Calm Calm - N/A   Clear
11:53 PM 75.9 °F - 73.0 °F 91% 30.21 in 9.0 mi Calm Calm - N/A   Clear